[[{"header":{"parameterUnit":"m.s-1","parameterCategory":1,"la1":30.2992,"la2":30.254,"lo1":-89.0895,"lo2":-89.0443,"dy":0.0025,"dx":0.0025,"nx":19,"ny":19,"refTime":"2026-04-07T03:00:00:Z","depth":0,"parameterNumber":2,"parameterNumberName":"U-component_of_WINDS"},"data":[0,0,0,-7.7188,-7.719,-7.7268,-7.7268,-7.741,-7.7412,0,0,0,0,0,0,0,0,0,0,0,-7.7191,-7.7193,-7.7188,-7.7191,-7.7268,-7.7268,-7.741,-7.7412,0,0,0,0,0,0,0,0,0,0,0,-7.719,-7.7192,-7.7195,-7.7191,-7.7268,-7.7268,-7.741,-7.7336,0,0,0,0,0,0,0,0,0,0,-7.7253,-7.7281,-7.7192,-7.7195,-7.7192,-7.7268,-7.7268,-7.7332,-7.734,-7.7394,0,-7.7448,0,-7.7433,-7.7424,-7.7425,0,0,0,-7.7171,-7.7274,-7.7272,-7.7195,-7.7193,-7.7268,-7.7227,-7.7336,-7.7346,-7.7406,-7.745,-7.7454,-7.7435,-7.7426,-7.7426,-7.7802,-7.7805,0,0,-7.7167,-7.7219,-7.7265,-7.728,-7.727,-7.7225,-7.723,-7.7341,-7.7393,-7.745,-7.7457,-7.7438,-7.7427,-7.7428,-7.78,-7.7803,0,0,0,-7.7168,-7.7217,-7.721,-7.7275,-7.7286,-7.7228,-7.7234,-7.7387,-7.7381,-7.7458,-7.7439,-7.7428,-7.743,-7.7797,-7.7801,-7.7985,0,0,0,-7.7164,-7.7217,-7.721,-7.7242,-7.7285,-7.7338,-7.7278,-7.7374,-7.7384,-7.7439,-7.7428,-7.7432,-7.7794,-7.7799,-7.7973,-7.8062,0,0,0,-7.7177,-7.7218,-7.7239,-7.7245,-7.728,-7.7334,-7.7334,-7.7375,-7.7374,-7.7425,-7.7432,-7.7792,-7.7798,-7.7963,-7.8045,-7.8177,0,0,0,-7.7206,-7.7399,-7.7242,-7.7452,-7.728,-7.7448,-7.7332,-7.7455,-7.752,-7.7429,-7.7794,-7.7801,-7.796,-7.8035,-7.8167,-7.8297,-7.8357,0,0,-7.7479,-7.7434,-7.7553,-7.7415,-7.7624,-7.7432,-7.7668,-7.7678,-7.7634,-7.7749,-7.7757,-7.7977,-7.8044,-7.8175,-7.8673,-7.8721,0,0,0,-7.7657,-7.7744,-7.7788,-7.7853,-7.7867,-7.7886,-7.7855,-7.7859,-7.7954,-7.7704,-7.8059,-7.8097,-7.8172,-7.8232,-7.8272,-7.8333,-7.7831,-7.783,-7.7829,-7.8117,-7.8053,-7.8246,-7.8193,-7.8259,-7.8226,-7.8274,-7.8274,-7.8188,-7.8274,-7.8306,-7.8617,-7.8689,-7.8719,-7.8784,-7.8371,-7.8372,-7.8372,-7.8373,-7.8511,-7.8623,-7.8509,-7.8655,-7.8587,-7.8709,-7.8687,-7.8623,-7.8727,-7.8586,-7.8648,-7.8499,-7.8774,-7.8827,-7.8386,-7.8384,-7.8382,-7.8381,-7.838,-7.8804,-7.8847,-7.885,-7.8941,-7.9019,-7.8958,-7.9064,-7.8998,-7.8936,-7.8998,-7.9027,-7.9024,-7.9012,-7.9017,-7.9018,-7.9019,-7.902,-7.9021,-7.9021,-7.9107,-7.9105,-7.9202,-7.9237,-7.9272,-7.931,-7.9282,-7.9315,-7.9334,-7.9277,-7.9277,-7.9185,-7.8813,-7.8721,-7.9038,-7.9035,-7.9033,-7.9031,-7.903,-7.9528,-7.9423,-7.9575,-7.9611,-7.9646,-7.9729,-7.9644,-7.9718,-7.9735,-7.979,-7.9686,-7.9422,-7.937,-7.9337,-7.926,-7.9698,-7.9698,-7.9698,-7.9698,-7.9775,-7.9744,-7.9885,-7.9947,-8.0,-7.9941,-8.0116,-8.0098,-8.0062,-8.007,-7.9997,-7.989,-7.986,-7.9826,-7.9783,-7.971,-8.0252,-8.0253,-8.0253,-8.0031,-8.0002,-8.0163,-8.0129,-8.0153,-8.0176,-8.0338,-8.0415,-8.0352,-8.0274,-8.0074,-8.0051,-7.9877,-7.9824,-7.9739,-7.9673,-7.9538,0,0]},{"header":{"parameterUnit":"m.s-1","parameterCategory":1,"la1":30.2992,"la2":30.254,"lo1":-89.0895,"lo2":-89.0443,"dy":0.0025,"dx":0.0025,"nx":19,"ny":19,"refTime":"2026-04-07T03:00:00:Z","depth":0,"parameterNumber":3,"parameterNumberName":"V-component_of_WINDS"},"data":[0,0,0,1.3557,1.3557,1.3543,1.3543,1.3508,1.3508,0,0,0,0,0,0,0,0,0,0,0,1.3553,1.3552,1.3557,1.3557,1.3543,1.3543,1.3508,1.3508,0,0,0,0,0,0,0,0,0,0,0,1.3553,1.3552,1.3552,1.3556,1.3543,1.3543,1.3509,1.3524,0,0,0,0,0,0,0,0,0,0,1.3541,1.3529,1.3552,1.3552,1.3556,1.3543,1.3543,1.3525,1.3523,1.3508,0,1.3494,0,1.35,1.3505,1.3505,0,0,0,1.3562,1.353,1.3535,1.3552,1.3556,1.3543,1.355,1.3525,1.3522,1.3505,1.3493,1.3493,1.35,1.3504,1.3504,1.3402,1.3401,0,0,1.3563,1.3545,1.3536,1.3533,1.3536,1.3551,1.355,1.3523,1.3508,1.3493,1.3492,1.3499,1.3504,1.3504,1.3403,1.3402,0,0,0,1.3561,1.3545,1.3551,1.3534,1.3533,1.355,1.3549,1.3509,1.3513,1.3492,1.3499,1.3504,1.3503,1.3404,1.3403,1.3348,0,0,0,1.3562,1.3544,1.3551,1.3539,1.3533,1.3521,1.3536,1.3515,1.3512,1.3499,1.3504,1.3503,1.3405,1.3403,1.3351,1.3324,0,0,0,1.3556,1.3544,1.3539,1.3538,1.3532,1.3522,1.3524,1.3515,1.3516,1.3505,1.3503,1.3405,1.3403,1.3354,1.3329,1.3291,0,0,0,1.3544,1.3489,1.3538,1.3479,1.3532,1.349,1.3524,1.3493,1.3477,1.3504,1.3405,1.3403,1.3355,1.3332,1.3294,1.3255,1.3237,0,0,1.3464,1.3479,1.3446,1.3489,1.3434,1.3493,1.343,1.343,1.3445,1.3415,1.3413,1.335,1.3329,1.3292,1.315,1.3136,0,0,0,1.3414,1.339,1.338,1.3365,1.3367,1.3365,1.3379,1.338,1.3356,1.3427,1.3329,1.3316,1.3295,1.3277,1.3265,1.3247,1.3394,1.3395,1.3395,1.3272,1.3297,1.3244,1.3267,1.3253,1.3269,1.3259,1.3263,1.3289,1.3266,1.3256,1.3168,1.3146,1.3137,1.3118,1.324,1.324,1.3239,1.3239,1.3155,1.3124,1.3166,1.313,1.3156,1.3125,1.314,1.316,1.3135,1.3176,1.3159,1.32,1.3121,1.3106,1.3235,1.3236,1.3237,1.3237,1.3237,1.3062,1.3052,1.3057,1.3039,1.3023,1.3049,1.3024,1.3049,1.3072,1.3055,1.3047,1.3047,1.305,1.305,1.305,1.3049,1.3049,1.3049,1.3049,1.2963,1.297,1.2946,1.2946,1.2941,1.2937,1.2956,1.2951,1.2952,1.2972,1.2972,1.3,1.311,1.3135,1.3044,1.3045,1.3045,1.3046,1.3046,1.283,1.2865,1.2828,1.2823,1.2826,1.2808,1.2843,1.2831,1.2831,1.2818,1.2852,1.293,1.2945,1.2955,1.2976,1.2848,1.2848,1.2848,1.2848,1.2749,1.2762,1.273,1.2721,1.2715,1.2744,1.27,1.2716,1.2736,1.2737,1.2761,1.2792,1.2801,1.2811,1.2823,1.2843,1.2685,1.2685,1.2685,1.2668,1.2682,1.264,1.2663,1.2669,1.2672,1.2632,1.2619,1.265,1.2678,1.2739,1.2745,1.2796,1.2812,1.2837,1.2856,1.2893,0,0]}]]